Weather Roundup
Issued by NWS Springfield, MO

Home | Current Version | Previous Version | Text Only | Print | Product List | Glossary On
Versions: 1 2 3 4 5 6 7 8 9 10 11 12 13 14 15 16 17 18 19 20 21 22 23 24 25 26 27 28 29 30 31 32 33 34 35 36 37 38 39 40 41 42 43 44 45 46 47 48 49 50
000
NZUS99 KSGF 280357
HRRSGF

HOURLY WEATHER
NATIONAL WEATHER SERVICE SPRINGFIELD MO
1100 PM CDT TUE SEP 27 2016

......SGF CWA......

CITY           SKY/WX    TMP DP  RH WIND       PRES   REMARKS
SPRINGFIELD    CLEAR     60  49  66 SW9       29.93F
JOPLIN         CLEAR     68  48  48 SW14      29.94S
WEST PLAINS    CLEAR     60  49  66 SW6       29.96F
ROLLA          CLEAR     60  52  74 S9        29.88S

......SURROUNDING SGF CWA......

CITY           SKY/WX    TMP DP  RH WIND       PRES   REMARKS
CHANUTE        CLEAR     62  55  77 SW7       29.92S
PARSONS        CLEAR     60  53  77 S3        29.94S
COFFEYVILLE    CLEAR     63  52  67 S7        29.94S
EMPORIA        CLEAR     61  56  83 SW8       29.91F
HARRISON AR    CLEAR     64  46  52 SW5       29.98S

......KANSAS AND MISSOURI......

CITY           SKY/WX    TMP DP  RH WIND       PRES   REMARKS
KANSAS CTY INT CLEAR     63  54  72 CALM      29.87F
SEDALIA        CLEAR     63  55  75 SW6       29.89S
ST JOSEPH      CLEAR     60  57  89 CALM      29.87S
ST LOUIS       CLEAR     67  52  58 SW7       29.85R
WICHITA        CLEAR     63  54  72 S7        29.94R
TOPEKA         CLEAR     61  56  83 CALM      29.88S
OLATHE         CLEAR     61  56  83 SW3       29.89S

......TENNESSEE......

CITY           SKY/WX    TMP DP  RH WIND       PRES   REMARKS
MEMPHIS        NOT AVBL
NASHVILLE      CLEAR     57  49  74 S3        29.96S

......ARKANSAS.......

CITY           SKY/WX    TMP DP  RH WIND       PRES   REMARKS
FAYETTEVILLE   CLEAR     55  52  89 S7        30.00S
FT SMITH       CLEAR     62  49  62 CALM      29.98S
LITTLE ROCK    CLEAR     62  54  74 SW5       29.98F

......OKLAHOMA.......

CITY           SKY/WX    TMP DP  RH WIND       PRES   REMARKS
TULSA          CLEAR     73  50  44 SW12      29.96R
PONCA CITY     CLEAR     66  50  56 SW5       29.95S
MCALESTER      PTCLDY    56  50  80 CALM      30.01S
OKLAHOMA CITY  CLEAR     62  50  64 SW6       30.01S

......IOWA............

CITY           SKY/WX    TMP DP  RH WIND       PRES   REMARKS
DES MOINES     NOT AVBL
QUAD CITIES    CLOUDY    58  47  66 SW5       29.77S

......ILLINOIS........

CITY           SKY/WX    TMP DP  RH WIND       PRES   REMARKS
QUINCY         NOT AVBL
CHICAGO        CLOUDY    56  46  69 N9G20     29.79S




USA.gov is the U.S. government's official web portal to all federal, state and local government web resources and services.